Regional Weather Roundup
Issued by NWS

Home | Current Version | Previous Version | Graphics & Text | Print | Product List | Glossary On
Versions: 1 2 3 4 5 6 7 8 9 10 11 12 13 14 15 16 17 18 19 20 21 22 23 24 25 26 27 28 29 30 31 32 33 34 35 36 37 38 39 40 41 42 43 44 45 46 47 48 49 50
134
ASUS43 KBIS 270010
RWRND

NORTH DAKOTA REGIONAL WEATHER ROUNDUP
NATIONAL WEATHER SERVICE BISMARCK ND
700 PM CDT MON SEP 26 2016

NOTE: "FAIR" INDICATES FEW OR NO CLOUDS BELOW 12,000 FEET WITH NO
SIGNIFICANT WEATHER AND/OR OBSTRUCTIONS TO VISIBILITY.


NDZ001>003-009>011-017-270100-
NORTHWEST NORTH DAKOTA

CITY           SKY/WX    TMP DP  RH WIND       PRES   REMARKS
WILLISTON      CLOUDY    68  40  35 NW5       30.10F
6HR MIN TEMP:  66; 6HR MAX TEMP:  71;

MINOT          CLEAR     62  36  37 NW14      30.06F
MINOT AFB      CLEAR     62  37  38 NW14      30.05S
$$

NDZ018>021-031>035-040>046-270100-
SOUTHWEST NORTH DAKOTA

CITY           SKY/WX    TMP DP  RH WIND       PRES   REMARKS
BISMARCK       CLEAR     65  35  33 NW13G23   30.09F
6HR MIN TEMP:  65; 6HR MAX TEMP:  69;

DICKINSON      CLOUDY    62  39  42 NW6       30.14S
GARRISON         N/A     63  36  36 NW10      30.08S
6HR MIN TEMP:  63; 6HR MAX TEMP:  67;

HETTINGER ARPT CLEAR     65  38  36 NW15      30.17F
$$

NDZ004>008-012>016-024-026-027-054-270100-
NORTHEAST NORTH DAKOTA

CITY           SKY/WX    TMP DP  RH WIND       PRES   REMARKS
GRAND FORKS    CLEAR     60  40  47 NW12      29.92S
GRND FRKS AFB  CLEAR     60  33  35 N12       29.93S
$$

NDZ022-023-025-028>030-036>039-047>053-270100-
SOUTHEAST NORTH DAKOTA

CITY           SKY/WX    TMP DP  RH WIND       PRES   REMARKS
FARGO          CLEAR     63  26  24 NW16G28   29.93S
6HR MIN TEMP:  63; 6HR MAX TEMP:  67;

JAMESTOWN      CLEAR     60  35  39 NW16      30.00F
$$





USA.gov is the U.S. government's official web portal to all federal, state and local government web resources and services.